Weather History for Petersburg, WV

Change the Weather History Date:

Sunday, June 30, 2013

  Actual Average (KEKN) Record (KEKN)
Temperature  
Mean Temperature 74 °F 69 °F  
Max Temperature 86 °F 81 °F 92 °F (1969)
Min Temperature 61 °F 58 °F 37 °F (1988)
Degree Days  
Heating Degree Days 0 1  
Month to date heating degree days 56  
Since 1 June heating degree days 55  
Since 1 July heating degree days 5852  
Cooling Degree Days 8 5  
Month to date cooling degree days 92  
Year to date cooling degree days 115  
Since 1 June cooling degree days 92  
Growing Degree Days 24 (Base 50)    
Moisture  
Dew Point 65 °F    
Average Humidity 86    
Maximum Humidity 97    
Minimum Humidity 53    
Precipitation  
Precipitation 0.78 in 0.16 in 1.79 in (1936)
Month to date precipitation 4.40  
Year to date precipitation 23.61  
Snow  
Snow 0.00 in - - ()
Month to date snowfall  
Since 1 September snowfall  
Snow Depth -    
Sea Level Pressure  
Sea Level Pressure 29.80 in    
Wind  
Wind Speed 0 mph (NNW)    
Max Wind Speed 16 mph    
Max Gust Speed 31 mph    
Visibility 8 miles    
Events Rain    
T = Trace of Precipitation, MM = Missing Value Source: NWS Daily Summary

Daily Weather History Graph

Daily Weather History Graph

Search for Another Location

Airport:

Trip Planner

Search our weather history database for the weather conditions in past years. The results will help you decide how hot, cold, wet, or windy it might be!

Date:

Astronomy

Jun. 30, 2013 Rise Set
Actual Time 5:54 AM EDT 8:46 PM EDT
Civil Twilight 5:22 AM EDT 9:18 PM EDT
Nautical Twilight 4:41 AM EDT 9:58 PM EDT
Astronomical Twilight 3:55 AM EDT 10:44 PM EDT
Moon 12:49 AM EDT (6/30) 2:01 PM EDT (6/30)
Length of Visible Light 15h 55m
Length of Day
14h 51m
Last Quarter, 45% of the Moon is Illuminated
Jun 30
Last Quarter
Jul 8
New
Jul 15
First Quarter
Jul 22
Full
Jul 29
Last Quarter

Hourly Weather History & Observations

Time (EDT) Temp. Heat Index Dew Point Humidity Pressure Visibility Wind Dir Wind Speed Gust Speed Precip Events Conditions
12:15 AM 65.3 °F - 63.5 °F 94% 29.75 in 10.0 mi Calm Calm - N/A   Scattered Clouds
12:35 AM 64.9 °F - 63.1 °F 94% 29.74 in 10.0 mi Calm Calm - N/A   Scattered Clouds
12:55 AM 64.9 °F - 63.3 °F 94% 29.75 in 7.0 mi Calm Calm - N/A   Clear
1:15 AM 64.2 °F - 62.6 °F 94% 29.75 in 10.0 mi Calm Calm - N/A   Clear
1:35 AM 63.3 °F - 61.9 °F 95% 29.76 in 5.0 mi Calm Calm - N/A   Scattered Clouds
1:55 AM 63.1 °F - 61.7 °F 95% 29.76 in 7.0 mi Calm Calm - N/A   Mostly Cloudy
2:15 AM 64.0 °F - 62.8 °F 96% 29.75 in 10.0 mi Calm Calm - N/A   Scattered Clouds
2:35 AM 63.1 °F - 61.7 °F 95% 29.75 in 7.0 mi Calm Calm - N/A   Clear
2:55 AM 62.6 °F - 61.2 °F 95% 29.75 in 3.0 mi Calm Calm - N/A   Scattered Clouds
3:15 AM 61.7 °F - 60.4 °F 96% 29.75 in 2.5 mi Calm Calm - N/A   Scattered Clouds
3:35 AM 62.4 °F - 61.2 °F 96% 29.75 in 4.0 mi Calm Calm - N/A   Scattered Clouds
3:55 AM 62.4 °F - 61.2 °F 96% 29.75 in 0.8 mi Calm Calm - N/A   Mist
4:15 AM 61.9 °F - 60.8 °F 96% 29.75 in 7.0 mi Calm Calm - N/A   Clear
4:35 AM 62.1 °F - 61.0 °F 96% 29.76 in 5.0 mi Calm Calm - N/A   Scattered Clouds
4:55 AM 62.2 °F - 61.2 °F 96% 29.76 in 7.0 mi Calm Calm - N/A   Mostly Cloudy
5:15 AM 62.4 °F - 61.2 °F 96% 29.77 in 7.0 mi Calm Calm - N/A   Scattered Clouds
5:35 AM 61.7 °F - 60.8 °F 97% 29.78 in 7.0 mi Calm Calm - N/A   Scattered Clouds
5:55 AM 61.0 °F - 59.9 °F 96% 29.78 in 4.0 mi Calm Calm - N/A   Mostly Cloudy
6:15 AM 61.7 °F - 60.8 °F 97% 29.79 in 5.0 mi Calm Calm - N/A   Overcast
6:35 AM 62.1 °F - 61.2 °F 97% 29.79 in 7.0 mi Calm Calm - N/A   Mostly Cloudy
6:55 AM 62.8 °F - 61.9 °F 97% 29.80 in 5.0 mi Calm Calm - N/A   Overcast
7:15 AM 63.3 °F - 62.4 °F 97% 29.80 in 5.0 mi Calm Calm - N/A   Overcast
7:35 AM 63.5 °F - 62.6 °F 97% 29.81 in 7.0 mi Calm Calm - N/A   Overcast
7:55 AM 63.1 °F - 62.1 °F 96% 29.82 in 7.0 mi Calm Calm - N/A   Overcast
8:15 AM 63.0 °F - 61.9 °F 96% 29.82 in 10.0 mi Calm Calm - N/A   Light Drizzle
8:35 AM 63.1 °F - 62.1 °F 96% 29.82 in 10.0 mi Calm Calm - N/A   Overcast
8:55 AM 63.9 °F - 62.8 °F 96% 29.82 in 10.0 mi Calm Calm - N/A   Mostly Cloudy
9:15 AM 64.8 °F - 63.1 °F 94% 29.83 in 10.0 mi Calm Calm - N/A   Overcast
9:35 AM 66.4 °F - 63.7 °F 91% 29.82 in 10.0 mi Calm Calm - N/A   Mostly Cloudy
9:55 AM 69.1 °F - 64.2 °F 84% 29.82 in 10.0 mi Calm Calm - N/A   Scattered Clouds
10:15 AM 72.1 °F - 65.3 °F 79% 29.81 in 10.0 mi Calm Calm - N/A   Clear
10:35 AM 74.5 °F - 64.8 °F 72% 29.81 in 10.0 mi Calm Calm - N/A   Clear
10:55 AM 77.2 °F - 66.4 °F 69% 29.81 in 10.0 mi Calm Calm - N/A   Clear
11:15 AM 78.4 °F - 66.6 °F 67% 29.81 in 10.0 mi Calm Calm - N/A   Clear
11:35 AM 80.2 °F 82.6 °F 66.9 °F 64% 29.81 in 10.0 mi Calm Calm - N/A   Clear
11:55 AM 81.3 °F 83.6 °F 66.9 °F 61% 29.80 in 10.0 mi Calm Calm - N/A   Scattered Clouds
12:15 PM 82.8 °F 85.8 °F 68.0 °F 61% 29.80 in 10.0 mi Calm Calm - N/A   Scattered Clouds
12:35 PM 83.7 °F 86.5 °F 67.5 °F 58% 29.80 in 10.0 mi Calm Calm - N/A   Clear
12:55 PM 83.8 °F 86.3 °F 66.7 °F 56% 29.79 in 10.0 mi Calm Calm - N/A   Clear
1:15 PM 85.6 °F 88.2 °F 66.7 °F 53% 29.78 in 10.0 mi Calm Calm - N/A   Clear
1:35 PM 86.4 °F 89.4 °F 67.6 °F 53% 29.78 in 10.0 mi Calm Calm - N/A   Clear
1:55 PM 85.3 °F 87.9 °F 67.1 °F 54% 29.77 in 10.0 mi Calm Calm - N/A   Clear
2:15 PM 81.7 °F 83.5 °F 65.3 °F 57% 29.78 in 10.0 mi SE 10.4 mph 31.1 mph N/A   Mostly Cloudy
2:35 PM 67.1 °F - 63.0 °F 87% 29.81 in 1.5 mi WNW 16.1 mph 23.0 mph 0.22 in Rain Heavy Rain
2:55 PM 66.9 °F - 63.7 °F 89% 29.79 in 10.0 mi North 6.9 mph - 0.50 in Rain Light Rain
3:15 PM 67.5 °F - 64.0 °F 89% 29.78 in 10.0 mi Calm Calm - N/A   Overcast
3:35 PM 67.8 °F - 63.7 °F 87% 29.80 in 4.0 mi Calm Calm - 0.06 in Rain Rain
3:55 PM 71.4 °F - 66.7 °F 85% 29.79 in 10.0 mi Calm Calm - 0.13 in   Overcast
4:15 PM 72.7 °F - 68.5 °F 87% 29.79 in 10.0 mi Calm Calm - N/A   Overcast
4:35 PM 76.1 °F - 69.8 °F 81% 29.78 in 10.0 mi Calm Calm - N/A   Scattered Clouds
4:55 PM 78.4 °F - 70.5 °F 77% 29.78 in 10.0 mi Calm Calm - N/A   Scattered Clouds
5:15 PM 78.8 °F - 69.8 °F 74% 29.78 in 10.0 mi Calm Calm - N/A   Scattered Clouds
5:35 PM 78.4 °F - 69.4 °F 74% 29.79 in 10.0 mi Calm Calm - N/A   Mostly Cloudy
5:55 PM 78.6 °F - 69.8 °F 74% 29.79 in 10.0 mi Calm Calm - N/A   Scattered Clouds
6:15 PM 78.4 °F - 70.2 °F 76% 29.80 in 10.0 mi Calm Calm - N/A   Scattered Clouds
6:35 PM 78.1 °F - 72.5 °F 83% 29.80 in 10.0 mi Calm Calm - N/A   Mostly Cloudy
6:55 PM 77.0 °F - 72.5 °F 86% 29.80 in 7.0 mi Calm Calm - N/A Rain Light Rain
7:15 PM 75.7 °F - 72.1 °F 89% 29.80 in 10.0 mi Calm Calm - N/A   Mostly Cloudy
7:35 PM 74.8 °F - 71.6 °F 90% 29.81 in 10.0 mi Calm Calm - N/A Rain Light Rain
7:55 PM 74.7 °F - 72.0 °F 91% 29.82 in 7.0 mi Calm Calm - 0.01 in   Overcast
8:15 PM 73.6 °F - 71.2 °F 92% 29.82 in 10.0 mi Calm Calm - N/A   Overcast
8:35 PM 73.6 °F - 70.7 °F 91% 29.84 in 2.5 mi Calm Calm - 0.06 in Rain Heavy Rain
8:55 PM 72.3 °F - 69.6 °F 91% 29.85 in 10.0 mi Calm Calm - 0.10 in Rain Heavy Rain
9:15 PM 71.8 °F - 69.1 °F 91% 29.86 in 7.0 mi Calm Calm - 0.03 in Rain Light Rain
9:35 PM 70.3 °F - 68.0 °F 92% 29.87 in 10.0 mi Calm Calm - 0.04 in Rain Light Rain
9:55 PM 70.0 °F - 67.3 °F 91% 29.87 in 10.0 mi Calm Calm - 0.04 in Rain Light Rain
10:15 PM 69.1 °F - 66.4 °F 91% 29.88 in 10.0 mi Calm Calm - N/A   Scattered Clouds
10:35 PM 68.5 °F - 66.2 °F 92% 29.88 in 10.0 mi Calm Calm - N/A   Scattered Clouds
10:55 PM 68.5 °F - 66.4 °F 93% 29.89 in 10.0 mi Calm Calm - N/A   Mostly Cloudy
11:15 PM 68.9 °F - 66.9 °F 93% 29.89 in 10.0 mi Calm Calm - N/A   Overcast
11:35 PM 68.2 °F - 66.4 °F 94% 29.88 in 10.0 mi Calm Calm - N/A   Mostly Cloudy
11:55 PM 68.4 °F - 66.9 °F 95% 29.88 in 7.0 mi Calm Calm - N/A   Overcast